Overview Statistics Trail Chart Weather Telemetry Raw packets
 

This is the latest recevied weather packets stored in our database for station/object DB0OHL. If no packets are shown the sender has not sent any weather packets the latest 10 day(s).

<< 26 27 28 29 30 31 32 >>
Time Temp. Humidity Pressure Rain* Wind** Luminosity Snow
1777424739 8.33° C 68% 1024.5 hPa 0 mm - - -
1777424136 8.33° C 69% 1024.6 hPa 0 mm - - -
1777423534 8.33° C 68% 1024.4 hPa 0 mm - - -
1777422931 8.33° C 68% 1024.6 hPa 0 mm - - -
1777422329 8.89° C 67% 1024.4 hPa 0 mm - - -
1777421726 8.89° C 67% 1024.5 hPa 0 mm - - -
1777421124 8.89° C 64% 1024.3 hPa 0 mm - - -
1777420521 9.44° C 64% 1024.2 hPa 0 mm - - -
1777419919 9.44° C 63% 1024.2 hPa 0 mm - - -
1777419316 9.44° C 62% 1024.2 hPa 0 mm - - -
1777418774 9.44° C 61% 1023.9 hPa 0 mm - - -
1777418171 10° C 60% 1023.9 hPa 0 mm - - -
1777417568 10° C 58% 1023.7 hPa 0 mm - - -
1777416966 10.56° C 58% 1023.8 hPa 0 mm - - -
1777416363 10.56° C 54% 1023.6 hPa 0 mm - - -
1777415761 10.56° C 54% 1023.5 hPa 0 mm - - -
1777415158 11.11° C 54% 1023.4 hPa 0 mm - - -
1777414556 11.11° C 53% 1023.5 hPa 0 mm - - -
1777413953 11.11° C 54% 1023.3 hPa 0 mm - - -
1777413351 11.11° C 53% 1023.3 hPa 0 mm - - -
1777412748 11.11° C 53% 1023.2 hPa 0 mm - - -
1777412146 11.11° C 53% 1022.8 hPa 0 mm - - -
1777411543 11.67° C 52% 1022.8 hPa 0 mm - - -
1777410940 11.67° C 53% 1022.5 hPa 0 mm - - -
1777410338 11.67° C 52% 1022.6 hPa 0 mm - - -

* Rain latest hour (hover to see other rain measurements)
** Current wind speed in m/s (hover to see current wind gust speed)